Find Starlink 11081

NORAD ID: 60405 Int'l Des: 2024-141 Owner: SPXS Country: US Constellation: starlink operational
LEOCIRCULAR

リアルタイム位置

3D地球を読み込み中...

Starlink 11081について

説明を読み込み中...

次回通過

Passes for default location (London). Set your location on the main map for personalized predictions.

高度履歴

Loading altitude history...

軌道要素

1 60405U 24141H 26125.50841326 .00000911 00000-0 12374-4 0 9994
2 60405 53.1590 166.4043 0001021 57.6943 302.4174 15.69717315100616
Epoch: May 5, 2026 • Age: 17 hours

現在のステータス

高度 362.5 km
速度 7.70 km/s
衛星直下点 39.70°N, 101.48°W
打ち上げ日 Aug 10, 2024
運用期間 1.7 years
タイプ internet

技術仕様

分類 Payload
質量 960.00 kg
乾燥質量 910.00 kg
総質量 960.00 kg
長さ 0.30 m
直径 4.10 m
スパン 29.00 m
形状 Box + pan
製造者 SPXS
バスタイプ Starlink V2MD
フェーズステータス In Orbit
所有者/国 SPXS/US

Most Searched